Uncategorized

2022 Ratings – Chippewa Hills Regional

Boys Adjustment: +5
Girls Adjustment: +5

(These will probably be a bit fast all weekend. Everyone running with their season on the line tends to do that.)

PROJECTIONS

How Right/Wrong Was I? 17 of 18 on the top 3 teams. Cadillac Girls – you got me.

KINGS AND QUEENS OF THE REMUS HILLS

I will highlight one kid from each race for a little writeup. With Regionals and their survive and advance attitude, I’ll try to shout out someone who extended their season another week when they weren’t expected to, or contributed to a team that came in with a clutch performance. Of course, that leaves out many athletes who gave a great effort, and all of the athletes that were winners for toeing the line this weekend. Congrats to all.

Adam Ogg, Sparta: In a narrow, congested top 3, you can point to pretty much anyone as a deciding factor. Adam was perhaps the biggest one in Sparta’s victory, shaving 13 seconds off his previous best. If he had run a 5 second personal best, that wouldn’t have been enough, but every place counts when you win by 2 points.

Avery Mickelson, Cadillac: Coming out of the woods at ~4k, the Vikings looked done for. But Avery, Ellie Cool, and Marisa Mazza just kept picking off girls, nabbing enough bodies to get that 3rd spot. Avery’s effort here on this difficult track was a 14 second season best.

Logan Patrick, Manton: Matched what he threw down last week at the NW Michigan Meet of Champions. The confidence gained from his 17:13 personal best resulted in another equally impressive effort, 17:19, finishing 9th (and was projected 16th).

Elizabeth Rigling, LeRoy Pine River: She had been in the 21’s all three years during her HS career, but other than one race at Roscommon, her senior year wasn’t trending that way. Well, until last week. And then this week. 21:02 yesterday, the best time of her entire career.

Matthew Bannick, Saginaw Michigan Lutheran Seminary: Lutheran Seminary as a whole ran incredible, each kid greatly outperforming expectation. Matthew especially so, breaking 20:00 for the first time in his first year of cross country.

Avery Westall, Breckenridge: As a freshman last year, Avery was primarily a low-22 girl and also had a breakout race of 20:44. For the first 1.5 months of the year, she hadn’t reached that form. As October rolled on, she began to find that stride, beginning with a 21:54 at Portage and culminating with a 4th place finish yesterday.

GradeNameTimeTeamRating
11Nolan Nixon16:09.4Cadillac195.2
11Gregory Janesak16:19.5Sparta191.8
12Andre Richmond16:26.8Whitehall189.4
12Carter McIlroy16:27.2Whitehall189.3
11Sean Pettis16:30.3Fremont188.2
12Owen Westerkamp16:40.3Big Rapids184.9
11Shane Izzard16:52.2Petoskey180.9
10Carter Sherman16:55.6Fremont179.8
9Owen Metzger16:58.0Sparta179.0
12Ramon Hernandez16:58.4Howard City-Tri-County178.9
10Peyton Ruel16:59.4Muskegon Oakridge178.6
12Ben Knuth17:01.8Big Rapids177.7
11John Christensen17:03.0Fremont177.3
11Gabe Outman17:06.0Cadillac176.3
11Jose Flores17:06.5Ludington176.2
11Brodie Delamater17:16.3Grant172.9
11Tommy Farley17:17.5Petoskey172.5
11Jack Lindwall17:18.6Petoskey172.1
12Noah Momber17:19.9Sparta171.7
11Trey Keson17:22.5Ludington170.8
10Stewart Waters17:26.7Whitehall169.4
11Dylan Odenbach17:33.4Petoskey167.2
10Parker Fettig17:35.3Petoskey166.6
12Gavin Towner17:39.2Petoskey165.3
9Carson Wood17:39.9Sparta165.0
9Chase Lowery17:44.7Fremont163.4
12Adam Ogg17:46.4Sparta162.9
9Simon Licata17:47.9Petoskey162.4
11JJ Mahan17:49.9Cadillac161.7
12Logan Ames17:53.0Gaylord160.7
9Issac Romero17:54.1Fremont160.3
10Kyan Deam17:54.6Big Rapids160.1
11Gavin Rykse17:59.0Howard City-Tri-County158.7
10David Reisterer18:10.6Ludington154.8
10Andrew Boeringa18:11.2Whitehall154.6
12Kaden Kolarik18:14.0Kingsley153.7
10Hayden Gould18:15.3Big Rapids153.2
10Austin Dalman18:19.5Big Rapids151.8
11Nevin Slater18:26.1Ludington149.6
10Jaxon Lumbert18:27.2Howard City-Tri-County149.3
9Hunter Parsons18:27.7Whitehall149.1
11Matthew Stilson18:29.8Cadillac148.4
10Cole Lowery18:34.8Fremont146.7
11Branden Stock18:37.5Kingsley145.8
12Avery Jura18:39.8Whitehall145.1
9Griffin Mis18:40.7Sparta144.8
10Isaac Meyers18:44.8Sparta143.4
9Alex Culver18:49.9Howard City-Tri-County141.7
12Henrik Quist18:52.2Fremont140.9
12Winston Pelloski18:54.7Kingsley140.1
9Henry Kauffman18:58.0Howard City-Tri-County139.0
11Freddie Santangelo18:58.3Cadillac138.9
10Landon Moore18:58.6Howard City-Tri-County138.8
12Matthew Cross19:11.5Kingsley136.2
9Brayden VanOs19:18.7Big Rapids133.8
11Braxton Zenner19:19.4Kingsley133.5
10Matt Spedoske19:24.7Big Rapids131.8
11Mathew Miedema19:25.7Newaygo131.4
12David Utzinger19:28.1Muskegon Oakridge130.6
11Jack Jubar19:29.4Ludington130.2
9Jacob Lewis19:36.8Whitehall127.7
10Sam Tolkinen19:42.9Cadillac125.7
11Garrison Klinge19:43.9Muskegon Oakridge125.4
9Isaiah Boerema19:50.8Ludington123.1
9Carter Slezak19:58.3Gaylord120.6
9Caleb Bays20:03.1Newaygo119.0
9Carson Kiefer20:18.4Cheboygan113.9
11Curtis Fuller20:19.7Ludington113.4
9Andrew Kiefer20:32.3Cheboygan109.3
10Peyton Thomasma20:39.8Gaylord106.7
11Blake Armstrong20:47.4Muskegon Oakridge104.2
9Logan Kilbreath20:49.6Grant103.5
12Jason Peterson20:51.1Gaylord103.0
12Zach Keiser20:51.8Gaylord102.7
12Andrei Derental20:53.8Gaylord102.1
10Logan Face21:01.9Kingsley99.4
11Trace Laskey21:08.1Howard City-Tri-County97.3
9Christopher Peterson21:12.0Gaylord96.0
11Jadon Ryman21:14.1Newaygo95.3
11Anthony Castillo21:30.5Grant89.8
9Alex Hudson21:33.7Cheboygan88.8
12Bryce Grugett21:38.1Newaygo87.3
12Leon Ventura Neumann21:42.1Newaygo86.0
9Braxton Esper21:44.1Cheboygan85.3
10Andrew Elmore21:46.9Cadillac84.4
9Levi Sterk21:57.2Kingsley80.9
11Luke Acton22:32.1Newaygo69.3
9Zachary Spaulding24:34.5Newaygo28.5
12Hunter Jones15:12.3Benzie Central214.2
12Clayton Ackley16:17.2Hart192.6
12Jake O’Neil16:24.9Remus Chippewa Hills190.0
12Wyatt Dean16:25.5Hart189.9
10Pol Molins16:36.1Benzie Central186.3
10August Rohde16:39.5Reed City185.2
12Seth Ackley16:57.7Hart179.1
11Ryan Allen17:14.9Reed City173.4
12Logan Patrick17:19.3Manton171.9
10Max Stitt17:23.2Hart170.6
11Paxton Hall17:26.5Lake City169.5
12Caleb Bitely17:27.9Hart169.0
12Enzo Gagliardi Ramalho17:30.6Lake City168.1
12Ty Kailing17:31.8Reed City167.7
11Jack O’Donnell17:33.9Manistee167.0
11Tyler Vining17:34.4Morley-Stanwood166.9
12Dade Allen17:35.9Benzie Central166.4
10Coleson Cruzan17:37.9White Cloud165.7
11Claydon Ingleright17:40.9McBain164.7
12Nathan Ciolk17:47.7White Cloud162.4
11Anthony Kiaunis17:53.7Reed City160.4
11Matthew Brownell17:55.2Remus Chippewa Hills159.9
12Josef Bromley18:06.2Hart156.3
12Gavin Shirey18:06.9Mason County Central156.0
12Shelby Hopkins18:08.4Morley-Stanwood155.5
9Aaron Allen18:09.7Reed City155.1
11Luke Senters18:14.5Manistee153.5
9Robert Dykhouse18:16.7Manton152.8
12Easton Vander Zwaag18:19.1Hart152.0
11Carson Foondle18:21.0White Cloud151.3
9Caiden Helsel18:29.3Lake City148.6
12Dorian Olson18:31.7Benzie Central147.8
9Iziquiel Picon18:40.3Shelby146.6
11Tanner Soelberg18:39.8Shelby145.1
11Gavin Kelso18:40.9LeRoy Pine River144.7
11Stephen Priese18:44.5Hesperia143.5
10Kaleb Canning18:50.8White Cloud141.4
12Cullen Kraus-McCarty18:55.2Mason County Central139.9
9Jackson Schaub18:58.4Benzie Central138.9
12Christian Ringler19:00.5White Cloud138.2
9Ethin Chandler19:09.4Benzie Central136.9
9Paul Saladin19:10.2Reed City136.6
11Micah Frye19:15.2Shelby134.9
10Avery Bowman19:15.8White Cloud134.7
11Hudson Kiteley19:16.4Benzie Central134.5
10Jacob Simon19:20.1Remus Chippewa Hills133.3
10Donald Grovesteen19:24.7White Cloud131.8
9Zack Temple19:26.0Hesperia131.3
12Mason Dozier19:28.9Reed City130.4
10Andrew Sherburn19:34.7Hesperia128.4
9Kaden Worch19:37.3Manistee127.6
11Nathan Koetje19:43.9McBain125.4
9Lance Smith20:02.5Hesperia119.2
12Ethan Edmondson20:09.2Manistee116.9
12Peter Maddox20:10.0Lake City116.7
12Benjamin Ceplina20:14.3Manistee115.2
10Dallas Chamberlain20:16.8McBain114.4
12Elliot Hoeflinger20:18.0Manistee114.0
11Kaden Abrahamson20:19.5McBain113.5
9Garrin Schneeg20:19.9McBain113.4
11Kyler Behrenwald20:31.4Lakeview109.5
10Ethan Fessenden20:32.2Shelby109.3
9Jack Helsel20:53.4Manton102.2
11Trey Johnson21:16.0Mason County Central94.7
12Tug Thuemmel21:18.2Manistee93.9
10Gaven Cornell21:28.7Morley-Stanwood90.4
11Jonathon Carballido21:32.4Shelby89.2
9Owen Butkovich21:36.2Lake City87.9
9Raiden Sternquist21:44.2Remus Chippewa Hills85.3
10Sawyer Fink22:30.6Evart69.8
10Hunter Hoover22:37.0Remus Chippewa Hills67.7
11Asher Johnson22:42.0Mason County Central66.0
9Jaiden Carsten23:04.9Manton58.4
10Brayden Figgins-Newton23:28.2Mason County Central50.6
10Kyle Bouck23:41.3Remus Chippewa Hills46.2
10Kayden Kangas24:12.7Morley-Stanwood35.8
9Matice Nichols24:36.9Hesperia27.7
11Jordan Rosekrans24:45.5Lake City24.8
12Sam Johnson24:54.2Mason County Central21.9
9Kolt Milner24:57.0Hesperia21.0
11Anthony Balsitis24:58.1Morley-Stanwood20.6
11Levi Sluiter25:45.9McBain4.7
12Dakota Dykhuis16:30.3Montabella188.2
11Owen Patton16:43.4Vestaburg183.9
12Owen Gross17:31.4Beal City167.9
11Sawyer Stoneman17:36.1Breckenridge166.3
11Alex Wanty17:54.9Hale161.7
11Isaac Humm17:59.5Breckenridge158.5
11Carter Follett18:05.5Merrill156.5
10Rodney Iamurri18:18.3Saginaw Nouvel152.3
11Jeffery Harden18:25.3Saginaw Michigan Lutheran Seminary149.9
10Sean O’Grady18:34.4Saginaw Nouvel146.9
10Camden Fager18:41.7Saginaw Michigan Lutheran Seminary144.4
11Jaden Ostrander18:42.0Breckenridge144.3
9Sean Bernard18:55.5Hale139.8
12Silas Schultz19:16.0Saginaw Michigan Lutheran Seminary134.7
12Jesse Jones19:18.2Mt. Pleasant Sacred Heart133.9
9Jordan Weber19:26.6Beal City131.1
12Ethan Sharrow19:43.6Charlton Heston Academy125.5
10Logan Dudley19:45.1Coleman125.0
12Caleb Munson19:47.9Saginaw Michigan Lutheran Seminary124.0
10Matthew Bannick19:59.5Saginaw Michigan Lutheran Seminary120.2
12Colin DeKam20:08.1McBain Northern Michigan Christian117.3
11Elijah Kimbel20:12.8McBain Northern Michigan Christian115.7
9Aiden Sprague20:23.8Beal City112.1
10Aimon Humm20:27.6Breckenridge110.8
10Austin Gross20:30.0Beal City110.0
12Cole Aultman20:40.5Coleman106.5
9Summer Yuan20:48.1Saginaw Michigan Lutheran Seminary104.0
11Keegan Shafer20:59.3Vestaburg100.2
9Dylan Cichowski21:02.0Charlton Heston Academy99.3
12Thomas Kolleth21:03.6Saginaw Nouvel98.8
12Caleb Needham21:07.7Saginaw Michigan Lutheran Seminary97.4
9Paxton Downing21:13.0Hale95.7
12Richard Duynslager21:24.7Beal City91.8
12Chris Tallman21:25.3Coleman91.6
11Preston Foster21:33.9Breckenridge88.7
10Matthew Firman21:39.2Farwell86.9
9Isaiah Greenacre21:48.9Mt. Pleasant Sacred Heart83.7
10Maddax McCaw21:49.7Breckenridge83.4
8VanNoord Dries21:57.9McBain Northern Michigan Christian80.7
9Conner Fenton22:27.6Beal City70.8
10Eli Zeien22:33.8Beal City68.8
9Jaden Kiger22:34.6Marion68.5
10Shane Scheaffer23:05.5Farwell58.2
11Lawrence Mullins23:11.2Hale56.3
9Kingsley Gu23:14.7Mt. Pleasant Sacred Heart55.1
12Ty Murray23:24.1Coleman52.0
9Jair Martinez23:28.1Coleman50.6
12Jacob Booher23:30.1McBain Northern Michigan Christian50.0
12Aidan Timko23:31.5Marion49.5
11Tim Stocker23:31.8Charlton Heston Academy49.4
12Trey Davis23:37.3Marion47.6
12Payton Sheldon23:43.7Montabella45.4
9Casper Witherspoon23:55.1Big Rapids Crossroads Academy41.6
9Owen Middleton24:16.4Mt. Pleasant Sacred Heart34.5
11Michael Harris24:27.2Charlton Heston Academy30.9
10Dylan Sharrow24:27.7Charlton Heston Academy30.8
10Kyle Cooter24:41.9Big Rapids Crossroads Academy26.1
11Ryan Hackney25:12.5Charlton Heston Academy15.8
9Chris Han25:22.2Mt. Pleasant Sacred Heart12.6
11Sergey Collings25:41.5Mt. Pleasant Sacred Heart6.2

GradeNameTimeTeamRating
12Emma Janesak18:48.9Sparta142.0
11CamBrie Corey19:10.7Petoskey134.8
9Katie Berkshire19:15.9Gaylord133.0
10Madeline Loe19:23.4Petoskey130.5
9Brooklynn Brown19:24.5Cadillac130.2
12Ariana Treat19:24.9Whitehall130.0
10Summer Brower19:29.2Ludington128.6
11Nora O’Leary19:32.3Petoskey127.6
9Linnea Paige19:33.0Fremont127.3
11Remington Arney19:50.6Newaygo121.5
9Christina Theis19:53.6Ludington120.5
10Nadia Grierson19:57.6Ludington119.1
12Regan Hill20:00.5Cadillac118.2
12Madyson Oudbier20:05.2Sparta116.6
12Eleanor Cool20:41.4Cadillac104.5
10Skylee Ames20:47.6Gaylord102.5
9Lily Sargent20:51.1Gaylord101.3
11Kennedi Wood21:01.4Sparta97.9
10Adalyn Britton21:03.0Whitehall97.3
10Autumn Brower21:04.8Ludington96.7
10Fiona Scott21:15.4Petoskey93.2
9Anna Pake21:19.1Howard City-Tri-County92.0
11Avery Mickelson21:19.9Cadillac91.7
11Olivia Andersen21:30.5Ludington88.2
12Annie Kline21:36.4Ludington86.2
11Mackenzie Keillor21:38.4Ludington85.5
11Lucy Johnson21:39.6Gaylord85.1
11Raegan Ruel21:41.2Muskegon Oakridge84.6
11Marisa Mazza21:44.4Cadillac83.5
11Oliviah Malloy21:44.9Big Rapids83.4
10Corina Mitteer21:51.1Whitehall81.3
10Ella Spanding21:51.7Gaylord81.1
9Ariana Tanner21:53.8Fremont80.4
11Lauren Cole21:54.3Petoskey80.2
11Gwendalynn Rickard21:54.8Big Rapids80.1
12Allison Tate21:57.0Whitehall79.3
12Lily Hardenburgh22:02.3Sparta77.6
9Joelle Patten22:03.1Fremont77.3
12Kelly Huis22:08.3Kingsley75.6
10Zoey Walerczyk22:13.2Newaygo73.9
12Grace Hillier22:13.5Kingsley73.8
10Sayla Bender22:13.9Kingsley73.7
10Samantha Harke22:18.8Cheboygan72.1
12Madison Parmley22:24.8Whitehall70.1
12Hannah Grahn22:26.5Kingsley69.5
10Mackenzie Baldrica22:27.9Sparta69.0
9Aubriana Druckenmiller22:29.0Sparta68.7
10Amelia Smith22:29.5Gaylord68.5
11Jade Ryerson22:31.2Sparta67.9
12Elizabeth Chaffee22:52.5Newaygo60.8
9Cate (Catherine) Brown22:55.0Cadillac60.0
10Mara VanWagner22:56.7Kingsley59.4
10Summer Adams22:57.7Big Rapids59.1
11Natalie Schulz23:00.0Howard City-Tri-County58.3
10Keira VanTimmeren23:02.0Howard City-Tri-County57.7
12Kaylee Schelich23:02.5Kingsley57.5
9Madeline Pacola23:07.4Petoskey55.9
11Sydney Hoffman23:09.9Petoskey55.0
11Cara Morse23:14.7Muskegon Oakridge53.4
11Hanah Johnson23:15.7Cadillac53.1
10Rachel Maddox23:19.9Fremont51.7
10Thalia Pineda23:21.6Newaygo51.1
11Aamori Paz23:42.6Newaygo44.1
10Olivia Beauchamp23:44.0Big Rapids43.7
12Brianna Bender23:48.1Kingsley42.3
11Elise Pfeiffer24:00.6Fremont38.1
12Kya Mahoney24:09.2Whitehall35.3
11Sami Keiser24:18.9Gaylord32.0
11Milla Hanks24:30.0Muskegon Oakridge28.3
10Addyson Moeggenberg24:36.5Howard City-Tri-County26.2
9Addison Ptasnik24:53.9Cheboygan20.4
12Kris Brandenburg24:54.5Whitehall20.2
9Rocquel Richards24:59.9Fremont18.4
12Connelly Hefferan Nordlund25:03.3Newaygo17.3
11Avary Losee25:07.2Grant15.9
12Rebecca Grandy25:07.6Newaygo15.8
10Isabella Caserta25:38.2Big Rapids5.6
10Bethany Buitenwerf25:48.5Howard City-Tri-County2.2
10Jessica Jazwinski17:39.3Hart165.2
11Alyson Enns18:27.4Hart149.2
11Mylie Kelly18:55.9Benzie Central139.7
11Miranda McNeil19:24.8Morley-Stanwood130.1
11Cecilia Postma20:01.4Manistee117.9
12Emma Soelberg20:18.9Shelby112.0
11Ava Hollandsworth20:24.1Remus Chippewa Hills110.3
12Bianca Delogu20:37.1Benzie Central106.0
10Nora Grossnickle20:39.4Benzie Central105.2
12Nora Smoes20:40.9Reed City104.7
9Quinn Hatfield20:47.8Remus Chippewa Hills102.4
10Lexie Beth Nienhuis20:49.9Hart101.7
12Savanna Owens20:50.3Hart101.6
12Abigail Pretty20:50.6Hart101.5
12Chloe Colton20:52.5Manton100.8
12Elizabeth Rigling21:02.5LeRoy Pine River97.5
12Hadley Saylor21:03.6Manton97.1
10Lauren Pretty21:18.2Hart92.3
9Kenai Kokx21:21.0Hart91.3
10Clara Smoes21:27.5Reed City89.2
10Ava Iverson21:28.3Benzie Central88.9
9Georgia Haag21:32.5Manistee87.5
10Chelsi Eisenga21:35.5McBain86.5
11Cambrie Lawrence22:08.3Benzie Central75.6
10Shauna McLean22:25.0McBain70.0
12Amanda Hill22:29.0LeRoy Pine River68.7
11Haylee Livermore22:29.5Remus Chippewa Hills68.5
12Claire Johnston22:33.5Morley-Stanwood67.2
9Adison Thorne22:35.4Mason County Central66.5
10Augusta Bowman22:36.5Remus Chippewa Hills66.2
12Rylee Cohoon22:45.3Lake City63.2
10Megan Gottschall22:47.1Lake City62.6
9Tessa Buday22:49.6Benzie Central61.8
10Carly Carlson22:52.0Reed City61.0
11Brookelynn Webster22:54.4Remus Chippewa Hills60.2
9Caelynn London22:55.2Reed City59.9
11Rowan Ensing22:56.0McBain59.7
12Claire Scott22:57.5Manistee59.2
9Magdalena Herberger22:58.7Manistee58.8
11Andrea Feldpausch23:01.0White Cloud58.0
9Alayna Edmondson23:14.4Manistee53.5
11Catalina Stong23:15.5Shelby53.2
9Sophia Bouck23:17.6Remus Chippewa Hills52.5
11Madison Morris23:25.3Manton49.9
10Kennedi Wahmhoff23:25.6Manton49.8
9Briella Walenjus23:27.9McBain49.0
9Mikayla Blood23:40.9McBain44.7
12Kiara Edwards23:57.4White Cloud39.2
10Kate Somsel23:59.7Manistee38.4
9Makayla Watkins24:00.4Reed City38.2
9Leah Storey24:00.7Remus Chippewa Hills38.1
11Lily Fults24:01.2Lake City37.9
12Jolena Deaton24:04.3White Cloud36.9
10Brooklyn Foondle24:07.3White Cloud35.9
12Abbie Robinson24:09.5Manistee35.2
9Grace Supanich24:16.1Morley-Stanwood33.0
9Amaya Roper24:16.8Benzie Central32.7
12Alyssa Baker24:21.5Manton31.2
10Tessa Ward24:23.2Manton30.6
10Annabeth Allee24:23.9LeRoy Pine River30.4
9Olivia Bosscher24:30.5McBain28.2
9Sahara Davis24:43.2Reed City23.9
11Jayden Baker24:48.0Mason County Central22.3
10Mallory Miller24:51.1Mason County Central21.3
10Madelynne Sterly24:52.6LeRoy Pine River20.8
12Aubrey Klotz24:56.1Shelby19.6
12Grace Richards24:57.3White Cloud19.2
9McKenzie Houtman25:06.7Morley-Stanwood16.1
10Rheanna Gilzene25:07.6Manton15.8
12Anna Ponce25:16.2Lake City12.9
9Emma Roe25:26.0Lake City9.7
10Molly Willison25:30.1Lakeview8.3
10Genesis Wilson25:37.1McBain6.0
10Nyvaeh Wendt25:38.2Mason County Central5.6
12Kaylee Locke20:44.0Beal City103.7
10Isabelle Eppert20:58.0Farwell99.0
9Ally Schmitz21:28.1Breckenridge89.0
10Avery Westall21:43.1Breckenridge84.0
11Jacqueline Morton21:45.1Mt. Pleasant Sacred Heart83.3
9Kaya Rose21:56.7Mt. Pleasant Sacred Heart79.4
10Abigail Davis22:01.2Vestaburg77.9
9Shelby Wisnowski22:15.5Charlton Heston Academy73.2
12Remi Sponseller22:20.3Farwell71.6
12Raini Sponseller22:21.2Farwell71.3
10Danica Aldrich22:25.2Breckenridge70.0
11Tori Most22:29.0Breckenridge68.7
12Hadyn Armstrong22:33.7Beal City67.1
10Lilly Leppert22:38.4Beal City65.5
12Autumn Wakefield22:44.1Saginaw Michigan Lutheran Seminary63.6
10Julia Silva22:52.5Farwell60.8
12Lily Deja22:54.7Mt. Pleasant Sacred Heart60.1
10Jessica Penrod23:04.6Vestaburg56.8
10Lauryn Licari23:13.8Beal City53.7
10Sydney Leslie23:25.0Saginaw Nouvel50.0
9Laura Bigard23:30.9Mt. Pleasant Sacred Heart48.0
10Areyel Weiss23:41.1Breckenridge44.6
10Nataly Vine23:45.5Breckenridge43.2
11Sarah Kober23:51.6Saginaw Michigan Lutheran Seminary41.1
10Addyson Thormeier23:59.2Farwell38.6
11Amelia Rivera24:09.3Saginaw Michigan Lutheran Seminary35.2
11Jackie Cole24:19.6Big Rapids Crossroads Academy31.8
10Nevaeh Post24:26.6Merrill29.5
10Brianna Locke24:32.4Beal City27.6
9Evalynne Bell24:33.3Farwell27.2
11JoAnna Harden24:46.6Saginaw Michigan Lutheran Seminary22.8
11Molly Siler24:52.8Mt. Pleasant Sacred Heart20.7
12Erin Stevens24:57.7Merrill19.1
12Selena Quintero25:00.0Marion18.3
12Rachel McCaughna25:05.0Saginaw Michigan Lutheran Seminary16.7
12Madeline Miller25:08.1Saginaw Michigan Lutheran Seminary15.6
12Lilly Backus25:08.9Beal City15.4
10Bella Davis25:13.5Beal City13.8
11Kayla Wolanin25:21.2Hale11.3
10Mickiah Allbee25:25.5Vestaburg9.8
9Wynn Park25:33.0Saginaw Michigan Lutheran Seminary7.3
10Ivy Frisch25:34.0Farwell7.0
11Kaitlin Buys25:39.4Big Rapids Crossroads Academy5.2
9Elizabeth Wolanin25:43.7Hale3.8

Leave a Reply

Fill in your details below or click an icon to log in:

WordPress.com Logo

You are commenting using your WordPress.com account. Log Out /  Change )

Twitter picture

You are commenting using your Twitter account. Log Out /  Change )

Facebook photo

You are commenting using your Facebook account. Log Out /  Change )

Connecting to %s